PEGASUS DEB, 39323

Orbit data source: Space-Track

PEGASUS DEB, 39323 is space debris in LEO originally from a launch on Thu, 19 May 1994 UTC launched from the Air Force Western Test Range (AFWTR). Debris objects in space refer to the collection of defunct objects orbiting the Earth. Examples of debris include non-operational satellites, rocket bodies, and fragments generated from explosions, collisions, or faulty payload assembly.

Loading next visibility...
Identifier
39323, 1994-029AFJ
Orbit
LEO
Country
Flag of USUS
Related business
Manufacturer
Unknown
Mission
Spacecraft
Bus & Motor
Unknown
Mass
Unknown
Launch date (UTC)
1994-05-19 (32 years ago)
Launch vehicle
Unknown
Launch site
Air Force Western Test Range (AFWTR)
Object type
Payload
Rocket body
Debris
Shape & HBR
Unknown shape, 0.1 m
Radar Cross Section
Small (<0.1 m²)

Expand to show TLE details & history
Last TLE update: 3 days ago

TLE from 3 days ago
0 PEGASUS DEB
1 39323U 94029AFJ 26059.80443199  .00006110  00000-0  77271-3 0  9999
2 39323  81.9836  96.0055 0165296 327.8228  31.2971 14.72461400725548
Epoch: 2026-02-28T19:18Z
TLE epoch observation values (Epoch: 2026-02-28T19:18:22.923Z)
Latitude
-0.00009°
Longitude
7.78868°
Altitude
557.427 km
Speed
7.636 km/s
True Right ascension
06h 24m 01s
True Declination
0° 00' 00"
Sunlit
Object was in full shadow at epoch
Visualization orbit readout
Latitude
Unknown
Longitude
Unknown
Altitude
Unknown
Speed
Unknown
Apparent Right ascension
Unknown
Apparent Declination
Unknown
Sunlit
N/A
Visualization observer readout
Local Sidereal Time
22:05:05
Azimuth
Unknown
Elevation
Unknown
Doppler factor
Unknown
Orbital elements
Apogee altitude
766.453 km
Perigee altitude
534.099 km
Semi-major axis
7,028.413 km
Eccentricity
0.01653
Inclination
81.9836°
RAAN
96.0055°
Arg. of periapsis
327.8228°
True anomaly
32.29869°
Mean anomaly
31.2971°
Eccentric anomaly
31.79611°
Mean motion
3.68347 °/min
Orbital period
97.73 mins
BSTAR
0.00077271
Loading maneuver chart data...
Computing Atmospheric mass density...
Loading historical data...
Loading historical data...
Loading historical data...
Loading historical data...
Loading historical data...
Loading historical data...
Loading historical data...

Documentation

Showing up to 5 results
|